Voltar ao catálogo

EUTE 172A

GE 23

AtivoComunicaçõesGEO
NORAD 28924·PAYLOAD·🇪🇺 EU

Lançado Dec 29, 2005 de Baikonur Cosmodrome

Loading…

TLE

AtualizadoSource: Space-Track

Época: Sep 14, 2026, 14:25 UTC

1 28924U 05052A   26257.60082881  .00000002  00000-0  00000-0 0  9994
2 28924   4.4394  75.3717 0005939  96.8256 211.6601  1.00273366 53220

Acompanhe EUTE 172A em tempo real com AllMySat

Download on the App Store